Masthead Graphic

Historical weather data from Belfast International Airport

The table below shows the weather reports for the last 24 hours taken from the METAR weather bulletins issued by Belfast International Airport. Readings should be at 30 min intervals however they are not always available

Date Time Pressure mb Temp. Wind Kts Wind Dir. Gusts Kts Conditions
18/02/2019 18:50:00 1007 7 13 230 mostly cloudy
18/02/2019 18:20:00 1006 7 14 240 mostly cloudy
18/02/2019 17:50:00 1006 8 14 230 mostly cloudy
18/02/2019 17:20:00 1006 8 12 240 mostly cloudy
18/02/2019 16:50:00 1005 8 14 240 mostly cloudy
18/02/2019 16:20:00 1005 8 15 240 mostly cloudy
18/02/2019 15:50:00 1005 8 13 240 mostly cloudy
18/02/2019 15:20:00 1004 8 12 240 mostly cloudy
18/02/2019 14:50:00 1004 8 11 280 mostly cloudy
rain
18/02/2019 14:20:00 1004 9 15 220 mostly cloudy
18/02/2019 13:50:00 1004 9 15 220 mostly cloudy
18/02/2019 13:20:00 1004 9 14 220 mostly cloudy
18/02/2019 12:50:00 1004 8 13 220 mostly cloudy
18/02/2019 12:20:00 1004 8 14 210 mostly cloudy
18/02/2019 11:50:00 1004 8 13 210 mostly cloudy
18/02/2019 11:20:00 1004 7 15 210 mostly cloudy
18/02/2019 10:50:00 1003 7 14 220 mostly cloudy
18/02/2019 10:20:00 1003 7 16 220 26 mostly cloudy
18/02/2019 09:50:00 1003 6 12 210 mostly cloudy
18/02/2019 09:20:00 1004 6 10 190 mostly cloudy
18/02/2019 08:50:00 1003 5 11 200 mostly cloudy
18/02/2019 08:20:00 1003 5 10 190 mostly cloudy
18/02/2019 07:50:00 1003 5 10 200 mostly cloudy
18/02/2019 07:20:00 1003 5 9 200 scattered clouds
First Previous